Conestee, SC

3:35 AM EDT on August 26, 2016 (GMT -0400)
Donaldson Center

Weather History for KGYH - March, 2013

Change the Weather History Date:

Sunday, March 31, 2013

  Actual Average (KGSP) Record (KGSP)
Temperature  
Mean Temperature 60 °F 57 °F  
Max Temperature 68 °F 69 °F 86 °F (1986)
Min Temperature 51 °F 45 °F 24 °F (1964)
Degree Days  
Heating Degree Days 6 9  
Month to date heating degree days 384  
Since 1 July heating degree days 2833  
Cooling Degree Days 0 0  
Month to date cooling degree days 8  
Year to date cooling degree days 8  
Growing Degree Days 10 (Base 50)    
Moisture  
Dew Point 53 °F    
Average Humidity 88    
Maximum Humidity 100    
Minimum Humidity 56    
Precipitation  
Precipitation 0.48 in 0.14 in 2.27 in (1962)
Month to date precipitation 4.52  
Year to date precipitation 12.31  
Snow  
Snow 0.00 in 0.00 in 1.00 in (1915)
Month to date snowfall 0.9  
Since 1 July snowfall 4.7  
Snow Depth -    
Sea Level Pressure  
Sea Level Pressure 29.93 in    
Wind  
Wind Speed 5 mph (SW)    
Max Wind Speed 20 mph    
Max Gust Speed 26 mph    
Visibility 8 miles    
Events Rain    
T = Trace of Precipitation, MM = Missing Value Source: NWS Daily Summary

Daily Weather History Graph

Daily Weather History Graph

Search for Another Location

Airport or City:

Trip Planner

Search our weather history database for the weather conditions in past years. The results will help you decide how hot, cold, wet, or windy it might be!

Date:

Astronomy

Mar. 31, 2013 Rise Set
Actual Time 7:17 AM EDT 7:50 PM EDT
Civil Twilight 6:52 AM EDT 8:15 PM EDT
Nautical Twilight 6:22 AM EDT 8:45 PM EDT
Astronomical Twilight 5:51 AM EDT 9:15 PM EDT
Moon No Moon Rise 10:14 AM EDT (3/31)
Length of Visible Light 13h 23m
Length of Day
12h 32m
Waning Gibbous, 78% of the Moon is Illuminated
Mar 31
Waning Gibbous
Apr 3
Last Quarter
Apr 10
New
Apr 18
First Quarter
Apr 25
Full

Hourly Weather History & Observations

Time (EDT) Temp. Dew Point Humidity Pressure Visibility Wind Dir Wind Speed Gust Speed Precip Events Conditions
12:15 AM 53.6 °F 46.4 °F 77% 30.06 in 10.0 mi West 3.5 mph - N/A Rain Light Rain
12:35 AM 53.6 °F 48.2 °F 82% 30.06 in 10.0 mi Calm Calm - 0.02 in Rain Rain
12:55 AM 51.8 °F 50.0 °F 94% 30.04 in 10.0 mi Calm Calm - 0.05 in Rain Rain
1:15 AM 51.8 °F 50.0 °F 94% 30.03 in 7.0 mi Calm Calm - 0.03 in Rain Light Rain
1:35 AM 51.8 °F 50.0 °F 94% 30.03 in 5.0 mi Calm Calm - 0.08 in Rain Rain
1:55 AM 51.8 °F 50.0 °F 94% 30.02 in 2.0 mi ENE 3.5 mph - 0.16 in Rain Rain
2:15 AM 51.8 °F 51.8 °F 100% 30.00 in 4.0 mi East 4.6 mph - 0.06 in Rain Rain
2:55 AM 51.8 °F 51.8 °F 100% 30.01 in 7.0 mi NW 5.8 mph - 0.11 in Rain Rain
3:15 AM 51.8 °F 51.8 °F 100% 29.98 in 5.0 mi East 4.6 mph - 0.02 in Rain Light Rain
3:55 AM 51.8 °F 51.8 °F 100% 29.96 in 4.0 mi ESE 4.6 mph - 0.05 in Rain Rain
4:15 AM 51.8 °F 50.0 °F 94% 29.96 in 5.0 mi Calm Calm - N/A   Light Drizzle
4:55 AM 51.8 °F 51.8 °F 100% 29.95 in 3.0 mi East 3.5 mph - 0.09 in Rain Heavy Rain
5:15 AM 51.8 °F 51.8 °F 100% 29.95 in 5.0 mi SE 3.5 mph - 0.01 in Rain Rain
5:35 AM 51.8 °F 51.8 °F 100% 29.96 in 5.0 mi SW 8.1 mph - 0.02 in   Drizzle
5:55 AM 51.8 °F 51.8 °F 100% 29.94 in 7.0 mi South 4.6 mph - 0.02 in   Overcast
6:15 AM 51.8 °F 51.8 °F 100% 29.93 in 7.0 mi SW 3.5 mph - N/A   Overcast
6:35 AM 51.8 °F 51.8 °F 100% 29.93 in 7.0 mi WSW 4.6 mph - N/A   Overcast
6:47 AM 53.6 °F 53.6 °F 100% 29.94 in 7.0 mi SW 6.9 mph - N/A   Overcast
7:47 AM 53.6 °F 53.6 °F 100% 29.93 in 5.0 mi SW 8.1 mph - N/A   Overcast
8:23 AM 55.4 °F 53.6 °F 94% 29.93 in 3.0 mi WSW 6.9 mph - N/A   Overcast
8:47 AM 55.4 °F 55.4 °F 100% 29.93 in 3.0 mi WSW 8.1 mph - N/A   Overcast
9:47 AM 57.2 °F 57.2 °F 100% 29.93 in 7.0 mi WSW 11.5 mph 20.7 mph N/A   Overcast
10:47 AM 60.8 °F 57.2 °F 88% 29.93 in 10.0 mi WSW 11.5 mph - N/A   Mostly Cloudy
11:47 AM 66.2 °F 57.2 °F 73% 29.93 in 10.0 mi West 12.7 mph 18.4 mph N/A   Mostly Cloudy
12:47 PM 68.0 °F 53.6 °F 60% 29.91 in 10.0 mi WSW 12.7 mph 25.3 mph N/A   Mostly Cloudy
1:47 PM 68.0 °F 53.6 °F 60% 29.91 in 10.0 mi WSW 13.8 mph 23.0 mph N/A   Mostly Cloudy
2:47 PM 68.0 °F 51.8 °F 56% 29.89 in 10.0 mi SW 19.6 mph 26.5 mph N/A   Mostly Cloudy
3:55 PM 68.0 °F 51.8 °F 56% 29.89 in 10.0 mi SW 17.3 mph 26.5 mph N/A   Mostly Cloudy
4:51 PM 64.4 °F 53.6 °F 68% 29.88 in 10.0 mi SW 11.5 mph 24.2 mph N/A   Overcast
5:47 PM 64.4 °F 55.4 °F 73% 29.86 in 10.0 mi SW 10.4 mph 17.3 mph N/A   Mostly Cloudy
6:47 PM 64.4 °F 55.4 °F 73% 29.88 in 10.0 mi WSW 8.1 mph - N/A   Mostly Cloudy
7:47 PM 62.6 °F 55.4 °F 77% 29.87 in 10.0 mi WSW 6.9 mph - N/A   Clear
8:47 PM 57.2 °F 55.4 °F 94% 29.86 in 10.0 mi SW 4.6 mph - N/A   Clear
9:15 PM 55.4 °F 53.6 °F 94% 29.87 in 10.0 mi SW 5.8 mph - N/A   Scattered Clouds
9:35 PM 57.2 °F 55.4 °F 94% 29.87 in 10.0 mi SW 4.6 mph - N/A   Mostly Cloudy
9:55 PM 57.2 °F 55.4 °F 94% 29.88 in 10.0 mi SW 5.8 mph - N/A   Mostly Cloudy
10:15 PM 59.0 °F 55.4 °F 88% 29.88 in 10.0 mi SW 5.8 mph - N/A   Scattered Clouds
10:35 PM 57.2 °F 55.4 °F 94% 29.88 in 10.0 mi SW 4.6 mph - N/A   Mostly Cloudy
10:55 PM 59.0 °F 55.4 °F 88% 29.87 in 10.0 mi SW 5.8 mph - N/A   Overcast
11:15 PM 59.0 °F 55.4 °F 88% 29.88 in 10.0 mi SW 8.1 mph - N/A   Mostly Cloudy
11:35 PM 59.0 °F 55.4 °F 88% 29.87 in 10.0 mi WSW 5.8 mph - N/A   Light Drizzle
11:55 PM 59.0 °F 55.4 °F 88% 29.87 in 10.0 mi West 5.8 mph - N/A   Mostly Cloudy